TimeEDT,TemperatureF,Dew PointF,Humidity,Sea Level PressureIn,VisibilityMPH,Wind Direction,Wind SpeedMPH,Gust SpeedMPH,PrecipitationIn,Events,Conditions,WindDirDegrees,DateUTC
12:46 AM,75.2,71.6,89,29.86,10.0,Calm,Calm,-,0.00,Rain,Light Rain,0,2013-07-01 04:46:00
12:56 AM,75.9,72.0,87,29.86,10.0,East,3.5,-,0.00,,Overcast,80,2013-07-01 04:56:00
1:04 AM,75.2,71.6,89,29.86,10.0,East,6.9,-,0.00,Rain-Thunderstorm,Light Rain,80,2013-07-01 05:04:00
1:28 AM,75.2,71.6,89,29.87,1.8,SSE,11.5,-,0.12,Rain-Thunderstorm,Heavy Thunderstorms and Rain,160,2013-07-01 05:28:00
1:33 AM,73.4,69.8,88,29.87,3.0,ESE,6.9,-,0.12,Rain-Thunderstorm,Light Thunderstorms and Rain,120,2013-07-01 05:33:00
1:45 AM,73.4,68.0,83,29.86,7.0,Calm,Calm,-,0.14,Rain-Thunderstorm,Light Thunderstorms and Rain,0,2013-07-01 05:45:00
1:56 AM,72.0,69.1,91,29.86,10.0,ESE,3.5,-,0.14,Thunderstorm,Mostly Cloudy,110,2013-07-01 05:56:00
2:14 AM,71.6,69.8,94,29.86,10.0,East,4.6,-,N/A,,Mostly Cloudy,90,2013-07-01 06:14:00
2:56 AM,72.0,69.1,91,29.86,10.0,Calm,Calm,-,N/A,,Mostly Cloudy,0,2013-07-01 06:56:00
3:36 AM,71.6,69.8,94,29.86,10.0,Calm,Calm,-,N/A,,Mostly Cloudy,0,2013-07-01 07:36:00
3:43 AM,71.6,69.8,94,29.86,10.0,Calm,Calm,-,N/A,,Overcast,0,2013-07-01 07:43:00
3:56 AM,73.0,71.1,93,29.86,10.0,Calm,Calm,-,N/A,,Overcast,0,2013-07-01 07:56:00
4:51 AM,73.4,71.6,94,29.87,10.0,ESE,5.8,-,N/A,,Overcast,120,2013-07-01 08:51:00
4:56 AM,73.0,71.1,93,29.87,10.0,ESE,5.8,-,N/A,,Overcast,120,2013-07-01 08:56:00
5:56 AM,73.0,70.0,90,29.88,8.0,East,3.5,-,0.00,,Overcast,90,2013-07-01 09:56:00
6:56 AM,72.0,71.1,97,29.90,9.0,ESE,6.9,-,N/A,,Overcast,120,2013-07-01 10:56:00
7:56 AM,73.0,71.1,93,29.91,9.0,East,4.6,-,N/A,,Mostly Cloudy,100,2013-07-01 11:56:00
8:32 AM,73.4,71.6,94,29.91,9.0,East,6.9,-,N/A,,Mostly Cloudy,100,2013-07-01 12:32:00
8:56 AM,73.9,71.1,91,29.92,7.0,ESE,6.9,-,N/A,,Overcast,120,2013-07-01 12:56:00
9:56 AM,75.9,70.0,82,29.92,10.0,ESE,4.6,-,N/A,,Overcast,110,2013-07-01 13:56:00
10:12 AM,77.0,69.8,78,29.92,10.0,SE,6.9,-,N/A,,Mostly Cloudy,130,2013-07-01 14:12:00
10:56 AM,79.0,70.0,74,29.91,10.0,SE,10.4,-,N/A,,Mostly Cloudy,140,2013-07-01 14:56:00
11:56 AM,79.0,70.0,74,29.92,10.0,South,4.6,-,N/A,,Mostly Cloudy,180,2013-07-01 15:56:00
12:56 PM,80.1,70.0,71,29.91,10.0,South,5.8,-,N/A,,Mostly Cloudy,180,2013-07-01 16:56:00
1:56 PM,79.0,71.1,77,29.91,10.0,South,9.2,-,0.00,Rain,Light Rain,170,2013-07-01 17:56:00
2:56 PM,79.0,71.1,77,29.91,10.0,SSE,12.7,-,0.00,,Overcast,150,2013-07-01 18:56:00
3:56 PM,79.0,71.1,77,29.91,10.0,South,6.9,-,N/A,,Mostly Cloudy,170,2013-07-01 19:56:00
4:56 PM,82.0,72.0,71,29.90,10.0,South,4.6,-,0.01,Rain,Light Rain,170,2013-07-01 20:56:00
5:56 PM,82.0,71.1,69,29.91,10.0,South,8.1,-,0.00,,Mostly Cloudy,180,2013-07-01 21:56:00
6:56 PM,79.0,70.0,74,29.92,10.0,SSE,9.2,-,N/A,,Partly Cloudy,150,2013-07-01 22:56:00
7:56 PM,79.0,71.1,77,29.94,10.0,SE,5.8,-,N/A,,Clear,130,2013-07-01 23:56:00
8:56 PM,78.1,71.1,79,29.95,10.0,SE,4.6,-,N/A,,Partly Cloudy,130,2013-07-02 00:56:00
9:56 PM,77.0,71.1,82,29.97,10.0,SSE,5.8,-,N/A,,Partly Cloudy,150,2013-07-02 01:56:00
10:56 PM,75.9,72.0,87,29.97,10.0,SSE,10.4,-,N/A,,Clear,150,2013-07-02 02:56:00
11:56 PM,75.9,72.0,87,29.98,10.0,SE,5.8,-,N/A,,Clear,130,2013-07-02 03:56:00